Find Starlink 3605

NORAD ID: 51805 Int'l Des: 2022-017 Owner: SPXS Country: US Constellation: starlink operational
LEOCIRCULAR

Current View

Loading 3D Globe...

About Starlink 3605

Description loading...

Upcoming Passes

Passes for default location (London). Set your location on the main map for personalized predictions.

Altitude History

Loading altitude history...

Two-Line Element Set

1 51805U 22017AP 26149.50459531 .00003052 00000-0 20978-3 0 9994
2 51805 53.2001 326.3986 0000862 169.7148 190.3861 15.08829271236441
Epoch: May 29, 2026 • Age: 18 hours

Current Status

Altitude 541.2 km
Velocity 7.60 km/s
Sub-Earth Point 31.37°N, 135.06°E
Launch Date Feb 25, 2022
Age 4.2 years
Type internet

Technical Details

Classification Payload
Mass 297.00 kg
Dry Mass 275.00 kg
Total Mass 297.00 kg
Length 0.20 m
Diameter 2.80 m
Span 9.00 m
Shape Box + pan
Manufacturer SPXS
Bus Type Starlink
Phase Status In Orbit
Owner/State SPXS/US

Most Searched